DW4821 Weather Reports


time (UTC)temp
C
wind
direction
speed
KPH
gust
KPH
rain 1hr
cm
rain 24hr
cm
rain mn
cm
humidity
%
barometer
mb
20260503013033 16 99 0.0 4.8 0.00 0.00 0.00 38 1010.1
20260503011535 16 99 3.2 9.7 0.00 0.00 0.00 37 1010.0
20260503010031 16 99 1.6 6.4 0.00 0.00 0.00 37 1010.2
20260503004530 16 106 1.6 6.4 0.00 0.00 0.00 37 1010.3
20260503003029 16 104 3.2 12.9 0.00 0.00 0.00 38 1010.4
20260503001529 16 108 3.2 11.3 0.00 0.00 0.00 37 1010.5
20260503000028 16 121 1.6 6.4 0.00 0.00 0.00 37 1010.5
20260502234531 16 123 6.4 17.7 0.00 0.00 0.00 36 1010.7
20260502233034 17 94 1.6 9.7 0.00 0.00 0.00 36 1010.7
20260502231532 17 8 3.2 6.4 0.00 0.00 0.00 37 1010.9
20260502230025 16 3 4.8 11.3 0.00 0.00 0.00 37 1011.1
20260502224523 17 15 8.0 12.9 0.00 0.00 0.00 37 1011.2
20260502223021 17 163 8.0 12.9 0.00 0.00 0.00 37 1011.5
20260502221520 17 78 3.2 8.0 0.00 0.00 0.00 37 1011.6
20260502220026 16 31 3.2 9.7 0.00 0.00 0.00 38 1012.0
20260502214517 16 32 3.2 9.7 0.00 0.00 0.00 39 1012.2
20260502213017 16 17 1.6 4.8 0.00 0.00 0.00 40 1012.2
20260502211521 16 4 3.2 16.1 0.00 0.00 0.00 39 1012.4
20260502210015 16 19 3.2 12.9 0.00 0.00 0.00 39 1012.4
20260502204514 16 23 11.3 17.7 0.00 0.00 0.00 38 1012.6
20260502203012 16 5 4.8 16.1 0.00 0.00 0.00 40 1012.6
20260502201511 15 38 3.2 17.7 0.00 0.00 0.00 42 1012.8
20260502200011 15 64 12.9 22.5 0.00 0.00 0.00 41 1012.9
20260502194509 16 82 14.5 24.1 0.00 0.00 0.00 42 1013.0
20260502193011 15 85 12.9 24.1 0.00 0.00 0.00 44 1013.2
20260502191507 14 52 12.9 19.3 0.00 0.00 0.00 46 1013.5
20260502190010 13 62 16.1 25.7 0.00 0.00 0.00 45 1013.7
20260502184511 14 50 12.9 25.7 0.00 0.00 0.00 45 1013.7
20260502183006 14 15 9.7 22.5 0.00 0.00 0.00 46 1013.7
20260502181505 14 45 11.3 22.5 0.00 0.00 0.00 44 1013.7
20260502163002 14 46 16.1 32.2 0.00 0.00 0.00 43 1013.6
20260502161501 14 50 16.1 24.1 0.00 0.00 0.00 44 1013.6
20260502151611 14 43 20.9 30.6 0.00 0.00 0.00 44 1013.5
20260502150109 13 65 17.7 29.0 0.00 0.00 0.00 44 1013.5
20260502123049 7 22 9.7 12.9 0.00 0.00 0.00 59 1013.0
20260502121549 7 21 9.7 14.5 0.00 0.00 0.00 58 1012.8
20260502114541 8 37 12.9 24.1 0.00 0.00 0.00 57 1012.5
20260502113038 8 45 16.1 24.1 0.00 0.00 0.00 56 1012.3
20260502111535 8 40 16.1 32.2 0.00 0.00 0.00 55 1012.4
20260502110033 8 49 16.1 24.1 0.00 0.00 0.00 54 1012.1
20260502104542 8 39 16.1 25.7 0.00 0.00 0.00 53 1011.7
20260502103029 9 43 16.1 29.0 0.00 0.00 0.00 51 1011.6
20260502101525 9 42 17.7 29.0 0.00 0.00 0.00 49 1011.3
20260502091522 10 44 12.9 19.3 0.00 0.00 0.00 46 1010.6
20260502070058 15 4 3.2 6.4 0.00 0.00 0.00 27 1009.7
20260502064603 14 5 3.2 8.0 0.00 0.00 0.00 30 1009.6
20260502063047 13 3 4.8 8.0 0.00 0.00 0.00 31 1009.7
20260502061544 12 360 6.4 9.7 0.00 0.00 0.00 33 1009.7
20260502060040 11 358 9.7 11.3 0.00 0.00 0.00 35 1009.6
20260502054540 11 1 9.7 12.9 0.00 0.00 0.00 35 1009.6
20260502053039 12 10 9.7 11.3 0.00 0.00 0.00 32 1009.5
20260502051558 13 356 4.8 11.3 0.00 0.00 0.00 30 1009.5
20260502050038 13 344 6.4 11.3 0.00 0.00 0.00 32 1009.5
20260502044537 12 300 14.5 19.3 0.00 0.00 0.00 34 1009.5
20260502043042 13 354 6.4 12.9 0.00 0.00 0.00 31 1009.3
20260502041536 12 329 6.4 14.5 0.00 0.00 0.00 35 1009.3
20260502040036 11 304 11.3 19.3 0.00 0.00 0.00 36 1009.2
20260502034544 14 309 8.0 12.9 0.00 0.00 0.00 29 1008.9
20260502033048 16 315 8.0 12.9 0.00 0.00 0.00 26 1008.9
20260502031545 16 333 4.8 11.3 0.00 0.00 0.00 27 1008.9
20260502030035 17 327 4.8 8.0 0.00 0.00 0.00 26 1008.8
20260502024534 17 320 3.2 8.0 0.00 0.00 0.00 26 1008.6
20260502023033 18 340 1.6 4.8 0.00 0.00 0.00 24 1008.5
20260502021533 18 339 3.2 11.3 0.00 0.00 0.00 23 1008.5
20260502020033 19 333 4.8 12.9 0.00 0.00 0.00 23 1008.3
20260502014533 21 291 0.0 11.3 0.00 0.00 0.00 21 1008.2